User: anonymous   Login
Location: Albany
(35.0000°S, 118.0000°E)
Time: 17:40:36
(UTC-04:00)
Language:

CZ-4B R/B - Orbit

View from above orbital plane
View from above orbital plane
View from above satellite
View from above satellite

Ground track
Ground track

The orbit data is extracted from the following two-line orbital elements,

1 33410U 08053C   15214.94054453  .00002328  00000-0  18022-3 0  9995
2 33410 097.6353 185.4518 0123200 327.7596 031.6135 14.96634799368379
Epoch (UTC): 02 August 2015 22:34:23
Eccentricity: 0.0123200
inclination: 97.6353°
perigee height: 491 km
apogee height: 663 km
right ascension of ascending node: 185.4518°
argument of perigee: 327.7596°
revolutions per day: 14.96634799
mean anomaly at epoch: 31.6135°
orbit number at epoch: 36837

The dashed part of the orbit path shows where the satellite is in the earth's shadow,  

DLR